• In Hungary
  • List of Countries
  • For 7 days
  • Water Temperature
  • Satellite Maps
  • Weather Map
  • News
  • Weather Widgets
  • user-avatar
    Login

    Hourly Weather Oktyabrskiy

    Today, 21 May, Monday

    Time Temperature Precipitation Wind Pressure Humidity
    00:00 +6°C° 0 mm 5 mps 750 mmHg 90%
    01:00 +5°C° 0 mm 5 mps 749 mmHg 91%
    02:00 +5°C° 0 mm 4 mps 749 mmHg 92%
    03:00 +5°C° 0 mm 4 mps 748 mmHg 92%
    04:00 +6°C° 0 mm 4 mps 748 mmHg 91%
    05:00 +6°C° 0 mm 4 mps 747 mmHg 90%
    06:00 +8°C° 0.3 mm 4 mps 746 mmHg 87%
    07:00 +10°C° 0.3 mm 4 mps 746 mmHg 83%
    08:00 +12°C° 0.3 mm 4 mps 745 mmHg 79%
    09:00 +13°C° 0.4 mm 4 mps 745 mmHg 78%
    10:00 +15°C° 0.4 mm 4 mps 744 mmHg 77%
    11:00 +17°C° 0.4 mm 4 mps 744 mmHg 76%
    12:00 +16°C° 0.6 mm 5 mps 744 mmHg 77%
    13:00 +16°C° 0.6 mm 5 mps 745 mmHg 77%
    14:00 +16°C° 0.6 mm 5 mps 745 mmHg 78%
    15:00 +14°C° 0.2 mm 6 mps 746 mmHg 78%
    16:00 +11°C° 0.2 mm 6 mps 746 mmHg 77%
    17:00 +9°C° 0.2 mm 7 mps 747 mmHg 76%
    18:00 +8°C° 0 mm 6 mps 748 mmHg 77%
    19:00 +7°C° 0 mm 6 mps 749 mmHg 78%
    20:00 +6°C° 0 mm 5 mps 749 mmHg 79%
    21:00 +5°C° 0 mm 5 mps 750 mmHg 79%
    22:00 +3°C° 0 mm 5 mps 750 mmHg 79%
    23:00 +3°C° 0 mm 5 mps 751 mmHg 79%

    Tomorrow, 22 May, Tuesday

    Time Temperature Precipitation Wind Pressure Humidity
    00:00 +2°C° 0 mm 5 mps 751 mmHg 78%
    01:00 +2°C° 0 mm 5 mps 751 mmHg 77%
    02:00 +1°C° 0 mm 5 mps 751 mmHg 76%
    03:00 +1°C° 0 mm 4 mps 751 mmHg 75%
    04:00 0°C° 0 mm 4 mps 751 mmHg 74%
    05:00 -1°C° 0 mm 4 mps 751 mmHg 73%
    06:00 0°C° 0 mm 4 mps 751 mmHg 67%
    07:00 +2°C° 0 mm 3 mps 750 mmHg 61%
    08:00 +3°C° 0 mm 3 mps 750 mmHg 55%
    09:00 +5°C° 0 mm 3 mps 749 mmHg 48%
    10:00 +8°C° 0 mm 3 mps 749 mmHg 41%
    11:00 +10°C° 0 mm 3 mps 748 mmHg 33%
    12:00 +11°C° 0 mm 4 mps 747 mmHg 31%
    13:00 +12°C° 0 mm 4 mps 746 mmHg 29%
    14:00 +13°C° 0 mm 4 mps 746 mmHg 28%
    15:00 +12°C° 0.1 mm 4 mps 745 mmHg 35%
    16:00 +11°C° 0.1 mm 4 mps 745 mmHg 42%
    17:00 +10°C° 0.1 mm 4 mps 744 mmHg 49%
    18:00 +8°C° 0.2 mm 4 mps 744 mmHg 58%
    19:00 +8°C° 0.2 mm 3 mps 744 mmHg 66%
    20:00 +7°C° 0.2 mm 2 mps 743 mmHg 75%
    21:00 +5°C° 0.5 mm 4 mps 743 mmHg 78%
    22:00 +3°C° 0.5 mm 5 mps 743 mmHg 80%
    23:00 +2°C° 0.5 mm 6 mps 743 mmHg 82%

    Day after tomorrow, 23 May, Wednesday

    Time Temperature Precipitation Wind Pressure Humidity
    00:00 +1°C° 0.2 mm 5 mps 744 mmHg 83%
    01:00 +1°C° 0.2 mm 5 mps 744 mmHg 83%
    02:00 0°C° 0.2 mm 4 mps 744 mmHg 83%
    03:00 0°C° 0 mm 5 mps 744 mmHg 83%
    04:00 0°C° 0 mm 5 mps 745 mmHg 83%
    05:00 0°C° 0 mm 5 mps 745 mmHg 83%
    06:00 +1°C° 0.1 mm 6 mps 745 mmHg 78%
    07:00 +1°C° 0.1 mm 6 mps 746 mmHg 74%
    08:00 +2°C° 0.1 mm 6 mps 746 mmHg 69%
    09:00 +2°C° 0.2 mm 6 mps 747 mmHg 66%
    10:00 +3°C° 0.2 mm 7 mps 747 mmHg 63%
    11:00 +4°C° 0.2 mm 7 mps 748 mmHg 60%
    12:00 +4°C° 0.4 mm 7 mps 748 mmHg 57%
    13:00 +4°C° 0.4 mm 7 mps 748 mmHg 54%
    14:00 +5°C° 0.4 mm 8 mps 749 mmHg 52%
    15:00 +5°C° 0.2 mm 8 mps 749 mmHg 52%
    16:00 +4°C° 0.2 mm 7 mps 750 mmHg 52%
    17:00 +4°C° 0.2 mm 7 mps 750 mmHg 52%
    18:00 +3°C° 0.1 mm 7 mps 751 mmHg 57%
    19:00 +2°C° 0.1 mm 6 mps 751 mmHg 62%
    20:00 +1°C° 0.1 mm 5 mps 752 mmHg 66%
    21:00 0°C° 0 mm 5 mps 752 mmHg 70%
    22:00 -1°C° 0 mm 4 mps 753 mmHg 73%
    23:00 -2°C° 0 mm 4 mps 753 mmHg 77%

    24 May, Thursday

    Time Temperature Precipitation Wind Pressure Humidity
    00:00 -2°C° 0 mm 4 mps 753 mmHg 80%
    01:00 -2°C° 0 mm 3 mps 753 mmHg 84%
    02:00 -4°C° 0 mm 3 mps 754 mmHg 87%
    03:00 -2°C° 0 mm 3 mps 754 mmHg 84%
    04:00 -2°C° 0 mm 3 mps 754 mmHg 82%
    05:00 -1°C° 0 mm 3 mps 754 mmHg 79%
    06:00 0°C° 0 mm 3 mps 754 mmHg 72%
    07:00 +2°C° 0 mm 3 mps 754 mmHg 64%
    08:00 +3°C° 0 mm 3 mps 754 mmHg 56%
    09:00 +5°C° 0 mm 3 mps 754 mmHg 50%
    10:00 +8°C° 0 mm 2 mps 753 mmHg 44%
    11:00 +9°C° 0 mm 2 mps 753 mmHg 39%
    12:00 +10°C° 0 mm 2 mps 752 mmHg 38%
    13:00 +12°C° 0 mm 2 mps 752 mmHg 37%
    14:00 +12°C° 0 mm 3 mps 752 mmHg 37%
    15:00 +12°C° 0.1 mm 3 mps 751 mmHg 43%
    16:00 +11°C° 0.1 mm 3 mps 751 mmHg 50%
    17:00 +11°C° 0.1 mm 3 mps 751 mmHg 57%
    18:00 +10°C° 0 mm 3 mps 750 mmHg 59%
    19:00 +10°C° 0 mm 4 mps 750 mmHg 60%
    20:00 +8°C° 0 mm 4 mps 749 mmHg 62%
    21:00 +8°C° 0 mm 4 mps 748 mmHg 64%
    22:00 +8°C° 0 mm 4 mps 748 mmHg 67%
    23:00 +7°C° 0 mm 4 mps 747 mmHg 69%

    25 May, Friday

    Time Temperature Precipitation Wind Pressure Humidity
    00:00 +7°C° 0.5 mm 4 mps 746 mmHg 76%
    01:00 +7°C° 0.5 mm 5 mps 745 mmHg 83%
    02:00 +7°C° 0.5 mm 5 mps 744 mmHg 90%
    03:00 +7°C° 0.3 mm 5 mps 744 mmHg 91%
    04:00 +7°C° 0.3 mm 5 mps 743 mmHg 92%
    05:00 +7°C° 0.3 mm 5 mps 743 mmHg 93%
    06:00 +8°C° 0.3 mm 4 mps 743 mmHg 93%
    07:00 +8°C° 0.3 mm 4 mps 743 mmHg 93%
    08:00 +10°C° 0.3 mm 4 mps 743 mmHg 94%
    09:00 +9°C° 0.2 mm 5 mps 743 mmHg 90%
    10:00 +8°C° 0.2 mm 5 mps 744 mmHg 86%
    11:00 +8°C° 0.2 mm 5 mps 744 mmHg 83%
    12:00 +8°C° 0 mm 5 mps 745 mmHg 80%
    13:00 +7°C° 0 mm 5 mps 746 mmHg 77%
    14:00 +7°C° 0 mm 5 mps 746 mmHg 74%
    15:00 +6°C° 0 mm 5 mps 747 mmHg 71%
    16:00 +6°C° 0 mm 5 mps 748 mmHg 68%
    17:00 +6°C° 0 mm 5 mps 748 mmHg 65%
    18:00 +5°C° 0 mm 4 mps 749 mmHg 64%
    19:00 +4°C° 0 mm 4 mps 749 mmHg 63%
    20:00 +4°C° 0 mm 3 mps 749 mmHg 62%
    21:00 +3°C° 0 mm 3 mps 750 mmHg 65%
    22:00 +2°C° 0 mm 3 mps 750 mmHg 67%
    23:00 +1°C° 0 mm 3 mps 750 mmHg 70%

    26 May, Saturday

    Time Temperature Precipitation Wind Pressure Humidity
    00:00 +1°C° 0 mm 3 mps 750 mmHg 73%
    01:00 0°C° 0 mm 3 mps 750 mmHg 76%
    02:00 -1°C° 0 mm 3 mps 751 mmHg 78%
    03:00 -2°C° 0 mm 4 mps 751 mmHg 76%
    04:00 -2°C° 0 mm 4 mps 751 mmHg 73%
    05:00 -2°C° 0 mm 5 mps 751 mmHg 70%
    06:00 -1°C° 0 mm 5 mps 751 mmHg 64%
    07:00 -1°C° 0 mm 6 mps 751 mmHg 58%
    08:00 +1°C° 0 mm 6 mps 751 mmHg 52%
    09:00 +2°C° 0 mm 6 mps 751 mmHg 48%
    10:00 +4°C° 0 mm 6 mps 751 mmHg 43%
    11:00 +5°C° 0 mm 6 mps 751 mmHg 38%
    12:00 +5°C° 0 mm 6 mps 752 mmHg 36%
    13:00 +7°C° 0 mm 6 mps 752 mmHg 34%
    14:00 +8°C° 0 mm 6 mps 752 mmHg 32%
    15:00 +8°C° 0 mm 6 mps 753 mmHg 33%
    16:00 +7°C° 0 mm 6 mps 753 mmHg 35%
    17:00 +7°C° 0 mm 5 mps 753 mmHg 36%
    18:00 +6°C° 0 mm 5 mps 754 mmHg 41%
    19:00 +5°C° 0 mm 4 mps 754 mmHg 46%
    20:00 +4°C° 0 mm 3 mps 754 mmHg 50%
    21:00 +3°C° 0 mm 3 mps 754 mmHg 55%
    22:00 +1°C° 0 mm 3 mps 754 mmHg 59%
    23:00 +1°C° 0 mm 2 mps 755 mmHg 63%
    Show more